Home   Weather   Bludenz   Past weeks

Flag for Austria Past Weather in Bludenz, Vorarlberg, Austria — Yesterday and Last 2 Weeks

Now
34 °F

Fog.


Feels Like: 34 °F
Forecast: 34 / 39 °F
Wind: 2 mph from Northeast

Location: Feldkirch

Current Time: Apr 28, 2017 at 12:58:41 am

Latest Report: Apr 28, 2017 at 12:00 am


Visibility: N/A

Pressure: 29.95 "Hg (27.92 "Hg at 563m altitude)

Humidity: 96%

Dew Point: 33 °F

Location of BludenzLocation

Past Weather in Bludenz — Graph

°F

Bludenz Temperature Yesterday

Maximum temperature yesterday: 43 °F (at 12:00 pm)
Minimum temperature yesterday: 34 °F (at 11:00 pm)
Average temperature yesterday: 39 °F

High & Low Weather Summary for the Past Weeks

 TemperatureHumidityPressure
High64 °F (Apr 24, 6:00 pm)100% (Apr 19, 7:00 am)30.59 "Hg (Apr 19, 7:00 am)
Low27 °F (Apr 20, 7:00 am)23% (Apr 21, 5:00 pm)29.70 "Hg (Apr 25, 3:00 pm)
Average45 °F74%30.13 "Hg
* Reported Apr 12 11:00 pm — Apr 27 11:00 pm, Bludenz, Weather by CustomWeather, © 2017

Note: Actual official high and low records may vary slightly from our data, if they occured in-between our weather recording intervals... More about our weather records

Advertising

Bludenz Weather History for the Previous 24 Hours

Scroll right to see more
 ConditionsComfort  
Time TempWeatherWind HumidityBarometerVisibility
11:00 pm
Thu, Apr 27
34 °FChilly.2 mph96%29.96 "HgN/A
10:00 pm35 °FFog.3 mph95%29.97 "HgN/A
9:00 pm36 °FFog.3 mph95%29.96 "HgN/A
8:00 pm37 °FChilly.2 mph93%29.96 "HgN/A
7:00 pm38 °FFog.2 mph93%29.95 "HgN/A
6:00 pm39 °FFog.3 mph91%29.96 "HgN/A
5:00 pm41 °FQuite cool.3 mph89%29.96 "HgN/A
4:00 pm41 °FQuite cool.5 mph87%29.96 "HgN/A
3:00 pm42 °FSprinkles. Cloudy.5 mph88%29.96 "HgN/A
2:00 pm43 °FQuite cool.3 mph84%29.95 "HgN/A
1:00 pm42 °FFog.3 mph86%29.96 "HgN/A
12:00 pm43 °FQuite cool.2 mph85%29.96 "HgN/A
11:00 am41 °FLight rain. Low clouds.2 mph91%29.97 "Hg3 mi
10:00 am41 °FSprinkles. Cloudy.1 mph91%29.96 "HgN/A
9:00 am38 °FFog.No wind94%29.97 "HgN/A
8:00 am38 °FChilly.1 mph95%29.97 "HgN/A
7:00 am37 °FLight rain. Low clouds.No wind96%29.94 "Hg3 mi
6:00 am37 °FChilly.1 mph95%29.95 "HgN/A
5:00 am37 °FChilly.1 mph95%29.94 "HgN/A
4:00 am37 °FChilly.1 mph94%29.94 "HgN/A
3:00 am37 °FFog.No wind94%29.93 "HgN/A
2:00 am38 °FChilly.1 mph94%29.92 "HgN/A
1:00 am38 °FFog.1 mph95%29.92 "HgN/A
12:00 am38 °FFog.No wind95%29.91 "HgN/A
Weather by CustomWeather, © 2017

See weather overviewHow to use our weather pages